Regional Weather Roundup
Issued by NWS

Home | Current Version | Previous Version | Graphics & Text | Print | Product List | Glossary On
Versions: 1 2 3 4 5 6 7 8 9 10 11 12 13 14 15 16 17 18 19 20 21 22 23 24 25 26 27
000
ASUS45 KCYS 181010
RWRWY

WYOMING REGIONAL WEATHER ROUNDUP
NATIONAL WEATHER SERVICE CHEYENNE WY
400 AM MDT FRI APR 18 2014

NOTE:  "FAIR" INDICATES FEW OR NO CLOUDS BELOW 12,000 FEET
WITH NO SIGNIFICANT WEATHER AND/OR OBSTRUCTIONS TO VISIBILITY.

WYZ001-181100-
YELLOWSTONE NATIONAL PARK

CITY           SKY/WX    TMP DP  RH WIND       PRES   REMARKS
LK YELLOWSTONE   N/A     34  30  85 VRB6      29.93S WCI  29
W YELLOWSTONE  NOT AVBL

$$
WYZ002>013-054>058-071-098>099-181100-
NORTHERN WYOMING

CITY           SKY/WX    TMP DP  RH WIND       PRES   REMARKS
JACKSON        CLOUDY    41  28  60 CALM      29.89F
CODY           MOCLDY    45  27  49 S10       29.78S
GREYBULL       CLOUDY    43  32  65 NE5       29.76F
WORLAND        CLOUDY    39  32  76 W5        29.78R
SHERIDAN       MOCLDY    37  32  82 NW6       29.75S WCI  32
BUFFALO        MOCLDY    41  28  60 SW5       29.78F
GILLETTE       CLEAR     40  34  79 S14       29.78F WCI  32
HULETT         FAIR     N/A N/A N/A CALM      29.82
NEWCASTLE      FAIR      43  32  65 MISG      29.84

$$
WYZ014>020-022>026-101>103-181100-
CENTRAL WYOMING

CITY           SKY/WX    TMP DP  RH WIND       PRES   REMARKS
BIG PINEY      CLOUDY    37  24  59 E3        29.96F
PINEDALE       CLOUDY    34  30  86 E5        29.97S WCI  30
DUBOIS         FAIR      32  23  69 CALM      29.90F
LANDER         PTCLDY    42  26  53 NE7       29.85R
RIVERTON       PTCLDY    39  23  52 NW12      29.87R WCI  32
CASPER         MOCLDY    40  27  59 SW9       29.87S WCI  34
DOUGLAS        CLEAR     37  32  82 S9        29.87F WCI  30

$$
WYZ021-027>030-104>119-181100-
SOUTHERN WYOMING

CITY           SKY/WX    TMP DP  RH WIND       PRES   REMARKS
EVANSTON       MOCLDY    45  24  43 SW5       29.95S
KEMMERER       CLOUDY    36  28  75 N7        29.96S WCI  30
FORT BRIDGER   FAIR      51  24  35 SW8       29.96F
ROCK SPRINGS   MOCLDY    42  20  41 S8        29.95F
DIXON          FAIR      33  25  71 SE3       30.06S
RAWLINS        MOCLDY    45  20  36 SW18      29.98F
SARATOGA       FAIR      41  23  48 SE14      30.02S
LARAMIE        CLEAR     40  21  46 S13       30.02S WCI  32
CHEYENNE       CLEAR     38  28  67 SW5       29.99S WCI  34
TORRINGTON     CLEAR     40  34  79 SE7       29.90S
PINE BLUFFS    FAIR      36  32  87 W8        29.98R WCI  29

$$



USA.gov is the U.S. government's official web portal to all federal, state and local government web resources and services.